Kezdőlap
METAR-TAF:

METAR-TAF

Repülőterek :

Mount Pleasant Municipal Airport

Mount Pleasant, Iowa, Amerikai Egyesült Államok

földrajzi szélesség: 40-56-48N, földrajzi hosszúság: 091-30-40W, magasság: 224 m

Jelenlegi meteorológiai megfigyelések

A jelentés 27 perccel ezelõtt készült, 20:55 UTC
Észak-északnyugati szél 12 kt széllökések: 16 kt
Hőmérséklet 22°C
Páratartalom 35%
Légköri nyomás 1022 hPa
Látótávolság: 16.1 km
Szórványos felhőzet 6000 lábon

METAR: KMPZ 222055Z AUTO 33012G16KT 10SM SCT060 22/06 A3018 RMK AO2

Idő: 16:22 (21:22 UTC)


TAF: hiányzik

Meteorológiai megfigyelések és előrejelzések több, mint 4000 repülőtéren (METAR és TAF jelentéseket).

A térképen piros és sárga pontok jelzik az elérhető meteorológiai állomásokat.

Mozgassa az egeret a pont fölött, hogy megjelenjen az állomás neve.

Azután kattintson az időjárási megfigyelések és előrejelzések megtekintéséhez.

A térkép megváltoztatása: kattintson a fekete keresztel jelölt zöld gombra ráközelítéshez, a vonallal jelölt zöld gombra távolításhoz, vagy a zöld nyilakra a szomszédos térképek eléréséhez.


METAR-TAF: